Hourly Weather Bolshie Stayki

Today, 18 June, Friday

Time Temperature Precipitation Wind Pressure Humidity
00:00 +15°C° 0 mm 1 mps 752 mmHg 79%
01:00 +15°C° 0 mm 1 mps 752 mmHg 80%
02:00 +15°C° 0 mm 1 mps 752 mmHg 81%
03:00 +15°C° 0 mm 1 mps 752 mmHg 81%
04:00 +15°C° 0 mm 1 mps 752 mmHg 81%
05:00 +16°C° 0 mm 1 mps 753 mmHg 81%
06:00 +19°C° 0 mm 1 mps 753 mmHg 75%
07:00 +21°C° 0 mm 1 mps 753 mmHg 69%
08:00 +23°C° 0 mm 1 mps 753 mmHg 63%
09:00 +24°C° 0 mm 1 mps 753 mmHg 59%
10:00 +25°C° 0 mm 2 mps 753 mmHg 55%
11:00 +27°C° 0 mm 2 mps 753 mmHg 50%
12:00 +27°C° 0 mm 2 mps 752 mmHg 50%
13:00 +27°C° 0 mm 3 mps 752 mmHg 49%
14:00 +28°C° 0 mm 3 mps 752 mmHg 48%
15:00 +28°C° 0 mm 3 mps 752 mmHg 51%
16:00 +27°C° 0 mm 3 mps 752 mmHg 54%
17:00 +27°C° 0 mm 3 mps 752 mmHg 57%
18:00 +25°C° 0 mm 3 mps 752 mmHg 66%
19:00 +23°C° 0 mm 2 mps 751 mmHg 74%
20:00 +20°C° 0 mm 2 mps 751 mmHg 82%
21:00 +19°C° 0 mm 2 mps 752 mmHg 84%
22:00 +18°C° 0 mm 2 mps 752 mmHg 87%
23:00 +17°C° 0 mm 2 mps 752 mmHg 89%

Tomorrow, 19 June, Saturday

Time Temperature Precipitation Wind Pressure Humidity
00:00 +16°C° 0 mm 2 mps 752 mmHg 90%
01:00 +16°C° 0 mm 2 mps 752 mmHg 91%
02:00 +16°C° 0 mm 2 mps 752 mmHg 92%
03:00 +16°C° 0 mm 2 mps 752 mmHg 91%
04:00 +16°C° 0 mm 2 mps 752 mmHg 90%
05:00 +18°C° 0 mm 1 mps 752 mmHg 90%
06:00 +19°C° 0 mm 2 mps 752 mmHg 83%
07:00 +20°C° 0 mm 2 mps 752 mmHg 76%
08:00 +23°C° 0 mm 2 mps 752 mmHg 69%
09:00 +24°C° 0 mm 2 mps 752 mmHg 64%
10:00 +26°C° 0 mm 3 mps 752 mmHg 60%
11:00 +27°C° 0 mm 3 mps 752 mmHg 55%
12:00 +27°C° 0 mm 3 mps 751 mmHg 54%
13:00 +28°C° 0 mm 3 mps 751 mmHg 52%
14:00 +28°C° 0 mm 3 mps 751 mmHg 50%
15:00 +28°C° 0 mm 3 mps 751 mmHg 53%
16:00 +28°C° 0 mm 3 mps 750 mmHg 55%
17:00 +27°C° 0 mm 3 mps 750 mmHg 57%
18:00 +26°C° 0 mm 2 mps 750 mmHg 66%
19:00 +24°C° 0 mm 2 mps 750 mmHg 74%
20:00 +21°C° 0 mm 2 mps 750 mmHg 83%
21:00 +20°C° 0 mm 2 mps 750 mmHg 86%
22:00 +19°C° 0 mm 2 mps 750 mmHg 89%
23:00 +18°C° 0 mm 2 mps 750 mmHg 92%

Day after tomorrow, 20 June, Sunday

Time Temperature Precipitation Wind Pressure Humidity
00:00 +18°C° 0 mm 2 mps 750 mmHg 93%
01:00 +17°C° 0 mm 2 mps 750 mmHg 93%
02:00 +17°C° 0 mm 2 mps 750 mmHg 94%
03:00 +17°C° 0 mm 2 mps 750 mmHg 93%
04:00 +18°C° 0 mm 2 mps 750 mmHg 92%
05:00 +19°C° 0 mm 1 mps 750 mmHg 91%
06:00 +20°C° 0 mm 2 mps 750 mmHg 85%
07:00 +23°C° 0 mm 2 mps 750 mmHg 79%
08:00 +25°C° 0 mm 2 mps 750 mmHg 72%
09:00 +26°C° 0 mm 2 mps 750 mmHg 68%
10:00 +27°C° 0 mm 2 mps 750 mmHg 63%
11:00 +28°C° 0 mm 3 mps 750 mmHg 58%
12:00 +29°C° 0 mm 3 mps 749 mmHg 56%
13:00 +29°C° 0 mm 3 mps 749 mmHg 54%
14:00 +30°C° 0 mm 3 mps 749 mmHg 52%
15:00 +30°C° 0 mm 3 mps 749 mmHg 55%
16:00 +29°C° 0 mm 3 mps 748 mmHg 57%
17:00 +29°C° 0 mm 3 mps 748 mmHg 60%
18:00 +27°C° 0 mm 3 mps 748 mmHg 68%
19:00 +26°C° 0 mm 2 mps 748 mmHg 76%
20:00 +24°C° 0 mm 2 mps 748 mmHg 85%
21:00 +23°C° 0 mm 2 mps 748 mmHg 87%
22:00 +21°C° 0 mm 2 mps 748 mmHg 90%
23:00 +20°C° 0 mm 2 mps 748 mmHg 93%

21 June, Monday

Time Temperature Precipitation Wind Pressure Humidity
00:00 +20°C° 0 mm 2 mps 748 mmHg 93%
01:00 +20°C° 0 mm 2 mps 748 mmHg 93%
02:00 +19°C° 0 mm 2 mps 748 mmHg 94%
03:00 +19°C° 0 mm 2 mps 748 mmHg 93%
04:00 +19°C° 0 mm 2 mps 748 mmHg 92%
05:00 +19°C° 0 mm 2 mps 748 mmHg 91%
06:00 +21°C° 0 mm 2 mps 748 mmHg 84%
07:00 +22°C° 0 mm 3 mps 748 mmHg 76%
08:00 +25°C° 0 mm 3 mps 748 mmHg 68%
09:00 +26°C° 0 mm 3 mps 748 mmHg 63%
10:00 +27°C° 0 mm 4 mps 747 mmHg 58%
11:00 +28°C° 0 mm 4 mps 747 mmHg 52%
12:00 +28°C° 0 mm 4 mps 747 mmHg 50%
13:00 +29°C° 0 mm 4 mps 747 mmHg 48%
14:00 +29°C° 0 mm 4 mps 746 mmHg 46%
15:00 +29°C° 0 mm 4 mps 746 mmHg 50%
16:00 +29°C° 0 mm 4 mps 746 mmHg 53%
17:00 +29°C° 0 mm 4 mps 746 mmHg 56%
18:00 +28°C° 0 mm 4 mps 746 mmHg 63%
19:00 +26°C° 0 mm 4 mps 746 mmHg 70%
20:00 +25°C° 0 mm 3 mps 745 mmHg 77%
21:00 +24°C° 0 mm 3 mps 745 mmHg 80%
22:00 +22°C° 0 mm 3 mps 745 mmHg 84%
23:00 +21°C° 0 mm 3 mps 745 mmHg 88%

22 June, Tuesday

Time Temperature Precipitation Wind Pressure Humidity
00:00 +20°C° 0 mm 3 mps 745 mmHg 90%
01:00 +20°C° 0 mm 3 mps 745 mmHg 93%
02:00 +20°C° 0 mm 3 mps 745 mmHg 95%
03:00 +20°C° 0 mm 3 mps 745 mmHg 94%
04:00 +20°C° 0 mm 3 mps 745 mmHg 93%
05:00 +20°C° 0 mm 3 mps 745 mmHg 93%
06:00 +22°C° 0 mm 4 mps 746 mmHg 86%
07:00 +23°C° 0 mm 4 mps 746 mmHg 79%
08:00 +26°C° 0 mm 4 mps 746 mmHg 72%
09:00 +27°C° 0 mm 4 mps 746 mmHg 66%
10:00 +28°C° 0 mm 5 mps 746 mmHg 61%
11:00 +30°C° 0 mm 5 mps 746 mmHg 55%
12:00 +30°C° 0 mm 5 mps 746 mmHg 54%
13:00 +32°C° 0 mm 5 mps 746 mmHg 52%
14:00 +32°C° 0 mm 5 mps 746 mmHg 50%
15:00 +32°C° 0 mm 5 mps 746 mmHg 53%
16:00 +32°C° 0 mm 4 mps 746 mmHg 55%
17:00 +32°C° 0 mm 4 mps 746 mmHg 57%
18:00 +29°C° 0 mm 3 mps 745 mmHg 65%
19:00 +27°C° 0 mm 3 mps 745 mmHg 72%
20:00 +25°C° 0 mm 2 mps 745 mmHg 79%
21:00 +25°C° 0 mm 3 mps 746 mmHg 83%
22:00 +24°C° 0 mm 3 mps 746 mmHg 86%
23:00 +22°C° 0 mm 3 mps 746 mmHg 89%

23 June, Wednesday

Time Temperature Precipitation Wind Pressure Humidity
00:00 +21°C° 0 mm 3 mps 746 mmHg 91%
01:00 +21°C° 0 mm 2 mps 746 mmHg 94%
02:00 +20°C° 0 mm 2 mps 746 mmHg 96%
03:00 +20°C° 0 mm 2 mps 747 mmHg 95%
04:00 +20°C° 0 mm 2 mps 747 mmHg 95%
05:00 +21°C° 0 mm 2 mps 747 mmHg 94%
06:00 +24°C° 0 mm 3 mps 747 mmHg 86%
07:00 +25°C° 0 mm 3 mps 747 mmHg 78%
08:00 +27°C° 0 mm 4 mps 747 mmHg 70%
09:00 +29°C° 0 mm 4 mps 747 mmHg 64%
10:00 +30°C° 0 mm 4 mps 747 mmHg 58%
11:00 +32°C° 0 mm 4 mps 747 mmHg 52%
12:00 +33°C° 0 mm 4 mps 747 mmHg 50%
13:00 +33°C° 0 mm 4 mps 747 mmHg 48%
14:00 +34°C° 0 mm 5 mps 747 mmHg 46%
15:00 +34°C° 0 mm 4 mps 747 mmHg 49%
16:00 +33°C° 0 mm 4 mps 747 mmHg 52%
17:00 +33°C° 0 mm 3 mps 747 mmHg 55%
18:00 +30°C° 0 mm 3 mps 746 mmHg 63%
19:00 +28°C° 0 mm 3 mps 746 mmHg 72%
20:00 +27°C° 0 mm 2 mps 746 mmHg 80%
21:00 +26°C° 0 mm 2 mps 746 mmHg 82%
22:00 +25°C° 0 mm 2 mps 746 mmHg 84%
23:00 +24°C° 0 mm 2 mps 747 mmHg 86%
Show more